User: anonymous   Login
Location: Oberwangen
(47.4286°N, 8.9679°E)
Time: 02:11:42
(UTC+00:00)
Language:

Cosmos 1346 Rocket - Orbit

View from above orbital plane
View from above orbital plane
View from above satellite
View from above satellite

Ground track
Ground track

The orbit data is extracted from the following two-line orbital elements,

1 13121U 82027B   21268.16871091  .00000389  00000-0  22884-4 0  9997
2 13121  81.1732 124.8402 0014628 335.1721  24.8798 15.09282942152060
Epoch (UTC): 25 September 2021 04:02:56
Eccentricity: 0.0014628
inclination: 81.1732°
perigee height: 528 km
apogee height: 548 km
right ascension of ascending node: 124.8402°
argument of perigee: 335.1721°
revolutions per day: 15.09282942
mean anomaly at epoch: 24.8798°
orbit number at epoch: 15206

The dashed part of the orbit path shows where the satellite is in the earth's shadow,  

DLR